Content
SEND FEEDBACK

Daily
Averages
Monthly
Summary
Russia

CHUL'MAN, RUSSIA


Home > Europe > Russia
Elevation: 2179 feet     Latitude: 56 50N     Longitude: 124 52E

WEATHER
 
SELECT A DAY
Number of Records: 154,468;   Date Range: 1/30/98 - 11/27/14
 
SHARE

PRINT THIS DATA

[ ← Previous Day ]
WEATHER ALMANAC - FEBRUARY 13, 2013
[ Next Day → ]
[ °C ]   °F
Weather ElementAverageHighLow
Temperature-12.4 °F-7.6 °F (2:30 pm)-16.6 °F (8:00 am)
Dewpoint-16.2 °F-11.2 °F (12:30 am)-20.2 °F (8:30 am)
Humidity82.5 %92 % (12:30 am)66 % (4:00 pm)
Barometer29.80 in30.29 in (10:00 pm)29.65 in (12:30 am)
Wind Speed5.1 mph8.9 mph (1:00 am)
Weather ElementAverage
Visibility7.5 mi
Wind DirectionWSW (258.9 °)

Weather ElementTotal
Precipitation---
Heating Degree Days77.1 (Base 65)
Averaged from 46 records on February 13, 2013
WEATHER CONDITIONS BREAKOUT
WIND DIRECTION BREAKOUT
WEATHER BY HOUR - FEBRUARY 13, 2013
[ °C ]   °F
Local TimeTemperatureDewpointHumidityBarometerVisibilityWind DirectionWind SpeedGust SpeedPrecipitationEventsConditions
12:30 AM-9.4 °F-11.2 °F92 %29.65 in6.2 miSouth (190°)6.7 mphSnowLight Snow
1:00 AM-9.4 °F-13.0 °F84 %29.65 in6.2 miSouth (190°)8.9 mphSnowLight Snow
2:00 AM-9.4 °F-13.0 °F84 %29.68 in6.2 miSSW (200°)6.7 mphSnowLight Snow
3:00 AM-11.2 °F-13.0 °F92 %29.68 in6.2 miSouth (190°)6.7 mphSnowLight Snow
4:00 AM-11.2 °F-14.8 °F84 %29.68 in6.2 miSSW (200°)4.5 mphSnowLight Snow
4:00 AM-12.0 °F-15.0 °F78 %30.08 in12.0 miSSW (210°)4.5 mphSnowLight Snow
5:00 AM-13.0 °F-16.6 °F84 %29.68 in6.2 miSSW (210°)6.7 mphSnowLight Snow
6:00 AM-14.8 °F-18.4 °F84 %29.68 in6.2 miSSW (210°)8.9 mphSnowLight Snow
6:30 AM-14.8 °F-18.4 °F84 %29.71 in6.2 miSSW (200°)8.9 mphSnowLight Snow
7:00 AM-14.8 °F-18.4 °F84 %29.71 in6.2 miSouth (190°)6.7 mphSnowLight Snow
7:30 AM-14.8 °F-18.4 °F84 %29.71 in6.2 miSSW (200°)6.7 mphSnowLight Snow
8:00 AM-16.6 °F-18.4 °F92 %29.71 in6.2 miSSW (200°)6.7 mphSnowLight Snow
8:30 AM-16.6 °F-20.2 °F84 %29.71 in6.2 miSSW (200°)6.7 mphSnowLight Snow
9:00 AM-16.6 °F-20.2 °F84 %29.71 in6.2 miSSW (200°)6.7 mphSnowLight Snow
9:30 AM-16.6 °F-20.2 °F84 %29.74 in6.2 miWSW (250°)4.5 mphSnowLight Snow
10:00 AM-15.0 °F-18.0 °F76 %30.17 in12.0 mi°2.2 mphSnowLight Snow
10:00 AM-14.8 °F-18.4 °F84 %29.74 in6.2 miVariable2.2 mphSnowLight Snow
10:30 AM-13.0 °F-16.6 °F84 %29.74 in6.2 miNW (310°)4.5 mphSnowLight Snow
11:00 AM-13.0 °F-16.6 °F84 %29.74 in6.2 miNW (310°)4.5 mphOvercast
11:30 AM-13.0 °F-16.6 °F84 %29.77 in6.2 miNW (320°)4.5 mphOvercast
12:00 PM-11.2 °F-14.8 °F84 %29.77 in6.2 miNW (310°)4.5 mphSnowLight Snow
12:30 PM-11.2 °F-14.8 °F84 %29.77 in6.2 miNW (320°)6.7 mphSnowLight Snow
1:00 PM-9.4 °F-13.0 °F84 %29.77 in6.2 miNW (320°)4.5 mphSnowLight Snow
1:30 PM-9.4 °F-13.0 °F84 %29.77 in6.2 miNW (310°)4.5 mphOvercast
2:00 PM-9.4 °F-13.0 °F84 %29.77 in6.2 miNNW (330°)4.5 mphOvercast
2:30 PM-7.6 °F-11.2 °F84 %29.77 in6.2 miNW (310°)4.5 mphOvercast
3:00 PM-7.6 °F-11.2 °F84 %29.77 in6.2 miNNW (330°)6.7 mphMostly Cloudy
3:30 PM-7.6 °F-13.0 °F77 %29.77 in6.2 miNNW (330°)4.5 mphScattered Clouds
4:00 PM-7.6 °F-13.0 °F77 %29.77 in6.2 miNNW (330°)6.7 mphScattered Clouds
4:00 PM-8.0 °F-13.0 °F66 %30.17 in31.0 miNNW (330°)6.7 mphPartly Cloudy
4:30 PM-7.6 °F-13.0 °F77 %29.77 in6.2 miNNW (340°)8.9 mphPartly Cloudy
5:00 PM-7.6 °F-14.8 °F71 %29.80 in6.2 miNorth (360°)6.7 mphPartly Cloudy
5:30 PM-9.4 °F-14.8 °F77 %29.80 in6.2 miNNW (340°)4.5 mphPartly Cloudy
6:00 PM-11.2 °F-16.6 °F77 %29.80 in6.2 miNW (320°)4.5 mphPartly Cloudy
6:30 PM-11.2 °F-16.6 °F77 %29.80 in6.2 miNW (320°)4.5 mphScattered Clouds
7:00 PM-11.2 °F-16.6 °F77 %29.80 in6.2 miNW (310°)4.5 mphScattered Clouds
7:30 PM-13.0 °F-18.4 °F77 %29.80 in6.2 miNNW (330°)4.5 mphScattered Clouds
8:00 PM-13.0 °F-18.4 °F77 %29.83 in6.2 miNorth (360°)2.2 mphScattered Clouds
8:30 PM-14.8 °F-18.4 °F84 %29.83 in6.2 miNorth (360°)2.2 mphPartly Cloudy
9:00 PM-14.8 °F-18.4 °F84 %29.83 in6.2 miNorth (360°)2.2 mphPartly Cloudy
9:30 PM-14.8 °F-18.4 °F84 %29.83 in6.2 miNorth (360°)2.2 mphClear
10:00 PM-16.6 °F-18.4 °F92 %29.83 in6.2 miNorth (360°)2.2 mphClear
10:00 PM-16.0 °F-19.0 °F76 %30.29 in31.0 miNorth2.2 mph
10:30 PM-16.6 °F-18.4 °F92 %29.83 in6.2 miNNW (330°)4.5 mphClear
11:00 PM-16.6 °F-18.4 °F92 %29.89 in6.2 miVariable2.2 mphClear
11:30 PM-16.6 °F-20.2 °F84 %29.89 in6.2 miVariable2.2 mphClear
Hourly data recorded from UELL, located miles away from Chul'man, Russia







STORIES FROM OUR PARTNERS